Temp
37 37 38 39 40 41 43 44 46 48 51 55 56 57 57 56 55 53 52 50 52 49
36 37 38 39 40 41 44 46 46 48 49 52 56 58 57 55 54 52 51 51 51 49
36 37 38 41 40 40 42 43 45 46 47 50 55 56 55 55 53 51 51 50 49 47
35 37 39 40 41 39 41 42 43 44 44 47 53 53 52 48 49 46 45 42 45 42
37 37 38 38 38 40 39 39 39 39 40 44 44 46 45 41 40 38 37 36 36 35
34 34 34 34 34 35 35 34 34 36 37 36 37 38 37 37 36 36 35 36 35 34
32 32 32 32 33 33 33 33 33 34 35 36 36 36 36 35 34 34 34 34 35 35
30 31 32 31 32 32 32 32 33 34 34 36 35 35 34 34 33 32 31 32 32 32
29 30 30 30 31 32 32 32 32 32 33 33 33 36 36 34 32 32 31 30 31 32
29 28 29 29 30 30 30 31 31 32 32 32 33 36 35 33 31 31 30 30 30 29
28 28 28 29 29 29 30 30 31 31 32 32 33 34 33 32 29 28 28 28 28 29
27 27 27 27 27 28 28 29 29 30 31 31 31 33 32 30 28 27 26 27 28 28
27 26 26 26 27 28 28 28 29 29 30 30 30 33 33 31 29 26 25 26 27 30
27 27 27 27 27 27 27 28 28 27 28 29 30 32 34 33 30 27 25 26 26 28
MSLP
1005.00 1004.36 1003.75 1003.35 1003.10 1002.71 1002.33 1002.09 1002.06 1001.79 1001.45 1001.00 1000.53 1001.07 1001.58 1001.07 1001.76 1003.36 1004.56 1005.42 1006.59 1007.53
1003.76 1003.19 1002.57 1002.17 1001.95 1001.63 1001.26 1001.04 1001.03 1000.91 1000.88 1000.71 999.80 999.56 1000.09 1000.88 1001.13 1002.30 1003.60 1004.41 1005.67 1006.84
1002.22 1001.91 1001.62 1001.13 1000.81 1000.63 1000.34 1000.16 1000.02 999.95 999.91 999.90 999.03 998.83 999.29 999.70 1000.25 1001.40 1002.76 1003.36 1004.98 1006.01
1001.08 1000.90 1000.57 1000.20 999.84 999.64 999.62 999.53 999.39 999.13 998.93 998.72 998.14 997.57 998.50 999.80 1000.53 1001.21 1002.62 1003.81 1004.67 1005.93
1000.46 1000.13 999.84 999.50 999.24 998.96 998.92 998.89 998.88 998.60 998.15 997.76 997.02 997.20 997.79 999.34 1000.91 1001.68 1003.05 1003.80 1005.02 1006.42
1000.46 999.87 999.31 998.95 998.76 998.61 998.43 998.41 998.32 997.83 997.53 997.31 996.90 997.55 998.12 1000.04 1000.91 1002.02 1003.04 1003.87 1005.06 1006.60
1000.93 1000.24 999.65 999.18 998.83 998.57 998.44 998.30 997.89 997.50 997.66 997.31 997.26 998.16 999.79 1000.25 1001.54 1003.18 1004.14 1005.16 1006.10 1006.83
1001.88 1001.20 1000.49 999.97 999.50 999.21 998.99 998.99 998.74 998.34 998.29 998.26 998.43 999.12 999.86 1000.89 1002.50 1004.18 1005.38 1006.28 1006.76 1007.70
1002.84 1002.05 1001.44 1000.87 1000.50 1000.20 1000.12 999.90 999.88 999.95 998.45 999.35 999.88 1000.40 1000.84 1001.66 1002.89 1004.64 1005.83 1006.59 1008.10 1008.76
1004.00 1003.34 1002.85 1002.33 1001.81 1001.28 1001.24 1000.62 1000.75 1001.24 1000.59 1000.60 1001.24 1001.51 1000.88 1002.68 1004.72 1006.06 1006.74 1007.65 1008.93 1009.81
1005.21 1004.68 1004.27 1003.67 1003.02 1002.77 1002.73 1002.04 1002.56 1001.99 1002.75 1002.59 1002.57 1002.41 1002.40 1004.50 1006.31 1007.37 1008.50 1009.11 1010.21 1011.06
1006.54 1006.07 1005.56 1004.85 1004.70 1004.51 1004.41 1004.85 1004.51 1003.96 1004.09 1003.78 1004.43 1004.18 1004.71 1006.55 1007.64 1008.81 1010.07 1010.82 1011.94 1012.65
1007.99 1007.37 1007.07 1006.71 1006.47 1006.65 1006.04 1005.68 1005.73 1006.08 1005.99 1005.96 1006.00 1005.80 1006.88 1007.62 1009.02 1009.94 1011.19 1012.62 1013.28 1013.17
1009.37 1009.08 1008.79 1008.60 1008.44 1008.32 1008.15 1007.86 1007.78 1007.57 1007.57 1007.64 1007.95 1008.13 1008.76 1009.98 1009.96 1010.51 1012.10 1013.00 1013.57 1014.32
Wind_Speed
18 12 13 14 12 12 11 10 9 10 11 14 14 15 17 17 18 20 18 22 17 14
16 17 15 15 13 11 13 10 11 12 12 14 17 19 20 18 20 19 18 18 17 14
16 15 15 14 15 13 11 11 13 12 12 13 16 15 17 17 19 19 16 13 18 16
10 13 13 13 12 12 13 12 12 13 11 14 16 13 14 8 12 15 11 5 11 10
8 10 11 10 9 11 12 10 14 14 11 12 7 11 14 13 11 12 11 10 12 10
9 6 5 6 7 7 6 7 6 7 7 5 10 10 12 12 12 10 12 13 14 13
9 7 5 4 3 3 1 1 2 4 2 9 12 14 12 17 13 11 10 10 9 10
11 10 8 8 8 8 8 7 7 8 10 10 10 10 16 16 16 15 14 13 13 12
13 12 11 10 11 11 11 11 11 9 14 14 11 26 28 22 16 16 16 16 15 14
12 13 13 11 12 13 12 13 12 13 13 16 17 29 33 29 15 14 14 15 13 12
13 14 13 13 14 13 11 13 11 13 14 16 18 32 35 31 17 16 15 14 14 14
13 13 14 15 15 13 13 11 12 14 16 17 18 31 33 23 16 17 15 14 12 12
12 13 14 13 13 10 10 13 12 14 15 18 17 29 26 20 11 15 11 11 11 16
11 11 10 10 9 8 10 12 13 14 14 15 14 19 24 19 10 11 9 8 7 7
Wind_Direction
269 261 257 251 247 248 248 248 246 247 254 255 233 227 216 191 181 185 193 187 190 191
264 258 254 249 245 248 249 245 242 239 244 255 241 234 195 195 185 183 191 191 189 194
259 256 253 248 241 239 251 247 245 247 245 246 243 204 191 196 184 181 193 184 189 189
254 250 248 249 243 241 243 247 250 251 255 254 234 175 167 180 185 169 172 161 180 182
257 254 253 248 247 237 238 250 251 253 245 233 155 148 145 134 141 129 137 128 127 135
341 322 288 264 254 249 229 219 219 207 187 169 124 122 112 118 117 123 131 134 137 143
353 345 343 345 354 1 330 156 104 84 133 128 115 112 118 111 98 98 98 105 113 132
0 3 6 18 29 36 39 44 42 89 82 92 100 117 115 103 109 103 93 87 83 80
17 16 15 27 44 50 44 64 59 45 91 91 91 106 107 102 98 101 101 96 92 92
23 25 22 34 49 51 49 55 66 70 76 89 95 101 94 91 90 93 95 102 99 92
27 34 30 35 42 47 55 60 71 83 81 94 93 93 91 88 86 83 80 83 88 95
27 34 37 41 41 43 51 63 70 68 74 81 86 93 93 96 92 85 81 82 88 99
30 38 43 39 42 42 53 61 64 69 70 76 82 86 92 92 96 94 92 88 96 101
34 39 43 48 47 61 71 75 70 67 62 69 78 88 92 99 97 97 102 101 99 107